User: anonymous   Login
Location: Melbourne
(37.8170°S, 144.9670°E)
Time: 03:47:00
(UTC+11:00)
Language:

CZ-3 R/B - Orbit

View from above orbital plane
View from above orbital plane
View from above satellite
View from above satellite

Ground track
Ground track

The orbit data is extracted from the following two-line orbital elements,

1 29517U 06048B   14297.97973185  .00105947  00000-0  24716-2 0  5077
2 29517 028.5069 090.9267 5249258 172.8808 205.2305 05.32391182106624
Epoch (UTC): 24 October 2014 23:30:48
Eccentricity: 0.5249258
inclination: 28.5069°
perigee height: 203 km
apogee height: 14748 km
right ascension of ascending node: 90.9267°
argument of perigee: 172.8808°
revolutions per day: 5.32391182
mean anomaly at epoch: 205.2305°
orbit number at epoch: 10662

The dashed part of the orbit path shows where the satellite is in the earth's shadow,  

DLR